#timestamp,LO_Frequency,Hit,StdDev 
1586228415.4,286047004.5,N
1586228435.3,286047004.2,N
1586228455.1,286046999.8,N
1586228475.9,286047001.8,N
1586228495.7,286046999.8,N
1586228515.5,286047003.5,N
1586228535.4,286047004.2,N
1586228555.2,286047003.0,N
1586228575.0,286047006.0,Y
1586228576.0,286047006.0,P
1586228595.8,286047002.4,N
1586228615.6,286047001.6,N
1586228635.5,286047002.0,N
1586228655.3,286047002.3,N
1586228675.1,286047002.7,N
1586228695.9,286046998.1,N
1586228715.7,286047002.8,N
1586228735.6,286047004.3,N
1586228755.4,286047000.5,N
1586228775.2,286047000.4,N
1586228795.1,286047001.7,N
1586228796.0,286047001.7,N
1586228815.8,286047004.4,N
1586228835.7,286047003.1,N
1586228855.5,286047004.2,N
1586228875.3,286047003.7,N
1586228895.2,286047002.1,N
1586228915.0,286047002.3,N
1586228915.9,286047002.3,N
1586228935.8,286047004.4,N
1586228955.6,286047001.8,N
1586228975.4,286047001.5,N
1586228995.3,286047002.5,N
1586229015.1,286047004.4,N
1586229035.8,286047001.5,N
1586229055.7,286047003.7,N
1586229075.5,286047001.4,N
1586229095.4,286047001.7,N
1586229115.2,286046999.9,N
1586229135.0,286046996.7,N
1586229135.9,286046996.7,N
1586229155.8,286046999.1,N
1586229175.6,286047000.8,N
1586229195.4,286047000.7,N
1586229215.3,286046998.9,N
1586229235.1,286047000.3,N
1586229255.9,286047000.2,N
1586229275.7,286047000.9,N
1586229295.5,286046998.7,N
1586229315.4,286047001.1,N
1586229335.2,286047001.8,N
1586229355.1,286047002.6,N
1586229356.0,286047002.6,N
1586229375.8,286046998.7,N
1586229395.6,286047004.1,N
1586229415.5,286047001.3,N
1586229435.3,286047004.1,N
1586229455.2,286047002.1,N
1586229475.9,286047001.7,N
1586229495.7,286047001.9,N
1586229515.6,286046998.9,N
1586229535.4,286046998.6,N
1586229555.2,286047004.2,N
1586229575.1,286047001.8,N
1586229576.0,286047001.8,N
1586229595.8,286047003.7,N
1586229615.7,286047003.5,N
1586229635.5,286047002.0,N
1586229655.3,286047002.6,N
1586229675.2,286046999.7,N
1586229695.0,286047003.4,N
1586229695.9,286047003.4,N
1586229715.8,286047001.7,N
1586229735.6,286047002.8,N
1586229755.4,286047002.4,N
1586229775.3,286047004.2,N
1586229795.1,286047001.7,N
1586229815.9,286047003.4,N
1586229835.7,286047002.6,N
1586229855.5,286047000.6,N
1586229875.4,286047000.5,N
1586229895.2,286047001.5,N
1586229915.0,286047003.8,N
1586229915.9,286047003.8,N
1586229935.8,286047006.0,Y
1586229955.6,286047002.4,P
1586229975.5,286047002.2,P
1586229995.3,286046999.8,N
1586230015.1,286047002.2,N
1586230035.9,286047001.1,N
1586230055.7,286046997.1,Y
1586230075.6,286046996.3,P
1586230095.4,286046995.8,N
1586230115.2,286046993.9,N
1586230135.1,286046986.3,Y
1586230136.0,286046995.5,P
1586230155.8,286047000.3,N
1586230175.7,286047000.9,N
1586230195.5,286047002.1,N
1586230215.3,286047001.6,N
1586230235.2,286047004.4,N
1586230255.0,286047000.5,N
1586230255.9,286047000.5,N
1586230275.8,286047002.5,N
1586230295.6,286047000.6,N
1586230315.4,286047001.2,N
1586230335.3,286047000.8,N
1586230355.1,286046998.5,N
1586230375.9,286047000.0,N
1586230395.7,286047000.7,N
1586230415.5,286047000.4,N
1586230435.4,286047002.4,N
1586230455.2,286047001.4,N
1586230475.0,286047004.1,N
1586230475.9,286047004.1,N
1586230495.8,286047001.4,N
1586230515.6,286047003.7,N
1586230535.5,286047003.3,N
1586230555.3,286047002.0,N
1586230575.1,286047000.5,N
1586230595.9,286047000.9,N
1586230615.7,286047000.2,N
1586230635.6,286047001.3,N
1586230655.4,286046998.1,N
1586230675.2,286047000.0,N
1586230695.1,286047000.7,N
1586230696.0,286047000.7,N
1586230715.8,286047000.5,N
1586230735.6,286047003.5,N
1586230755.5,286047004.2,N
1586230775.3,286047004.1,N
1586230795.2,286047002.9,N
1586230815.9,286047003.4,N
1586230835.7,286047001.0,N
1586230855.6,286047002.7,N
1586230875.4,286047002.5,N
1586230895.2,286047001.7,N
1586230915.1,286047000.2,N
1586230916.0,286047000.2,N
1586230935.8,286047000.7,N
1586230955.7,286046998.2,N
1586230975.5,286047000.3,N
1586230995.3,286046998.4,N
1586231015.2,286046999.4,N
1586231035.0,286046999.3,N
1586231035.9,286046999.3,N
1586231055.8,286046998.1,N
1586231075.6,286047000.5,N
1586231095.4,286046998.6,N
1586231115.3,286047000.3,N
1586231135.1,286047002.7,N
1586231155.9,286047001.3,N
1586231175.7,286047000.3,N
1586231195.5,286047002.6,N
1586231215.4,286047004.0,N
1586231235.2,286047001.4,N
1586231255.1,286047001.5,N
1586231256.0,286047001.5,N
1586231275.8,286047002.0,N
1586231295.7,286047001.7,N
1586231315.5,286047002.9,N
1586231335.3,286047002.9,N
1586231355.2,286047004.2,N
1586231375.0,286047003.0,N
1586231375.9,286047003.0,N
1586231395.8,286047001.4,N
1586231415.6,286047001.0,N
1586231435.4,286046996.7,N
1586231455.3,286046999.5,N
1586231475.1,286047000.0,N
1586231495.8,286047002.8,N
1586231515.7,286047002.4,N
1586231535.5,286046999.3,N
1586231555.4,286046998.2,N
1586231575.2,286046999.8,N
1586231595.0,286046999.9,N
1586231595.9,286046999.9,N
1586231615.8,286046999.8,N
1586231635.6,286047003.1,N
1586231655.5,286047003.1,N
1586231675.3,286047005.6,Y
1586231695.1,286047002.0,P
1586231715.9,286047002.4,P
1586231735.7,286047002.3,P
1586231755.6,286047001.7,Y
1586231775.4,286046999.0,P
1586231795.2,286046997.0,N
1586231815.1,286046996.5,N
1586231816.0,286046996.5,N
1586231835.8,286047000.7,N
1586231855.7,286046995.0,N
1586231875.5,286046996.1,N
1586231895.3,286046998.7,N
1586231915.2,286046998.8,N
1586231935.0,286046999.5,N
1586231935.9,286046999.5,N
1586231955.8,286046997.4,N
1586231975.6,286046997.8,N
1586231995.4,286046997.8,N
